DW8343 Weather Reports


Display with metric or nautical units.
time (UTC)temp
F
wind
direction
speed
MPH
gust
MPH
rain 1hr
in
rain 24hr
in
rain mn
in
humidity
%
barometer
mb
20260506051412 49 22 1.0 2.0 0.00 0.00 0.00 73 1014.9
20260506050908 49 48 1.0 2.0 0.00 0.00 0.00 73 1014.6
20260506050406 49 35 1.0 1.0 0.00 0.00 0.00 73 1014.6
20260506044856 49 33 0.0 1.0 0.00 0.00 0.00 72 1014.7
20260506044354 49 352 0.0 3.0 0.00 0.00 0.00 72 1014.9
20260506043851 49 48 0.0 1.0 0.00 0.00 0.00 73 1015.1
20260506043348 49 37 1.0 1.0 0.00 0.00 0.00 74 1014.9
20260506042847 49 34 0.0 2.0 0.00 0.00 0.00 74 1014.7
20260506042345 49 254 2.0 3.0 0.00 0.00 0.00 74 1014.9
20260506041844 49 101 0.0 1.0 0.00 0.00 0.00 74 1014.7
20260506041340 49 9 0.0 3.0 0.00 0.00 0.00 74 1014.8
20260506040837 49 70 1.0 4.0 0.00 0.00 0.00 75 1014.9
20260506040335 49 49 1.0 2.0 0.00 0.00 0.00 75 1014.8
20260506035831 49 268 1.0 1.0 0.00 0.00 0.00 76 1014.8
20260506035329 49 238 1.0 3.0 0.00 0.00 0.00 76 1014.9
20260506034825 49 344 0.0 1.0 0.00 0.00 0.00 77 1014.8
20260506034323 49 167 1.0 7.0 0.00 0.00 0.00 78 1014.8
20260506033820 49 296 3.0 3.0 0.00 0.00 0.00 79 1014.4
20260506033316 49 29 0.0 2.0 0.00 0.00 0.00 80 1014.3
20260506032813 49 352 2.0 3.0 0.00 0.00 0.00 80 1014.3
20260506032310 49 22 1.0 6.0 0.00 0.00 0.00 81 1013.8
20260506031807 49 92 1.0 2.0 0.00 0.00 0.00 82 1013.9
20260506031304 49 16 1.0 3.0 0.00 0.00 0.00 82 1013.8
20260506030802 49 222 1.0 4.0 0.00 0.00 0.00 81 1013.6
20260506030300 49 11 0.0 1.0 0.00 0.00 0.00 82 1013.9
20260506025757 49 2 1.0 2.0 0.00 0.00 0.00 82 1013.8
20260506025253 49 28 1.0 2.0 0.00 0.00 0.00 82 1013.9
20260506024750 49 335 2.0 3.0 0.00 0.00 0.00 83 1013.8
20260506024247 49 31 1.0 2.0 0.00 0.00 0.00 82 1014.0
20260506023743 49 48 1.0 2.0 0.00 0.00 0.00 82 1014.3
20260506023240 49 281 1.0 2.0 0.00 0.00 0.00 82 1014.4
20260506022737 49 14 1.0 3.0 0.00 0.00 0.00 82 1014.1
20260506022235 49 80 1.0 3.0 0.00 0.00 0.00 83 1013.9
20260506021732 49 28 0.0 2.0 0.00 0.00 0.00 84 1014.0
20260506021229 49 28 0.0 1.0 0.00 0.00 0.00 84 1013.9
20260506020726 49 20 0.0 3.0 0.00 0.00 0.00 84 1013.8
20260506020224 49 45 2.0 2.0 0.00 0.00 0.00 84 1013.7
20260506015721 49 348 0.0 1.0 0.00 0.00 0.00 84 1013.4
20260506015219 49 38 0.0 1.0 0.00 0.00 0.00 84 1013.8
20260506014715 49 31 0.0 2.0 0.00 0.00 0.00 84 1013.5
20260506014211 49 17 0.0 4.0 0.00 0.00 0.00 84 1013.4
20260506013709 50 61 1.0 1.0 0.00 0.00 0.00 83 1013.2
20260506013206 50 355 1.0 1.0 0.00 0.00 0.00 83 1013.3
20260506012702 50 333 1.0 2.0 0.00 0.00 0.00 82 1013.3
20260506012159 50 11 1.0 2.0 0.00 0.00 0.00 82 1013.3
20260506011657 50 5 1.0 2.0 0.00 0.00 0.00 82 1013.1
20260506011152 50 32 0.0 2.0 0.00 0.00 0.00 82 1013.2
20260506010651 50 284 0.0 1.0 0.00 0.00 0.00 82 1013.1
20260506010148 50 9 1.0 1.0 0.00 0.00 0.00 82 1012.7
20260506005645 50 299 1.0 2.0 0.00 0.00 0.00 82 1012.6
20260506005142 50 16 2.0 2.0 0.00 0.00 0.00 82 1012.4
20260506004638 50 219 2.0 2.0 0.00 0.00 0.00 82 1012.3
20260506004135 50 213 0.0 2.0 0.00 0.00 0.00 82 1012.2
20260506003632 50 13 0.0 2.0 0.00 0.00 0.00 81 1011.8
20260506003128 50 247 0.0 2.0 0.00 0.00 0.00 81 1012.0
20260506002619 51 21 1.0 2.0 0.00 0.00 0.00 81 1012.1
20260506002115 51 350 0.0 3.0 0.00 0.00 0.00 80 1012.0
20260506001611 51 28 0.0 3.0 0.00 0.00 0.00 80 1011.8
20260506001108 51 12 2.0 2.0 0.00 0.00 0.00 80 1011.9
20260506000606 51 333 0.0 2.0 0.00 0.00 0.00 80 1012.1
20260505235601 51 344 0.0 3.0 0.00 0.00 0.00 79 1011.9
20260505235057 51 18 1.0 3.0 0.00 0.00 0.00 78 1011.7
20260505234554 52 20 1.0 3.0 0.00 0.00 0.00 77 1011.8
20260505234051 52 17 1.0 2.0 0.00 0.00 0.00 77 1011.8
20260505233548 52 39 0.0 1.0 0.00 0.00 0.00 77 1012.0
20260505233045 52 31 0.0 1.0 0.00 0.00 0.00 77 1012.4
20260505232543 52 179 1.0 1.0 0.00 0.00 0.00 77 1012.6
20260505232040 52 164 0.0 1.0 0.00 0.00 0.00 76 1012.3
20260505231537 52 24 1.0 2.0 0.00 0.00 0.00 76 1012.2
20260505231037 52 260 2.0 2.0 0.00 0.00 0.00 76 1012.0
20260505230534 52 39 1.0 2.0 0.00 0.00 0.00 76 1011.4
20260505230030 52 20 1.0 3.0 0.00 0.00 0.00 75 1011.7
20260505225527 53 309 1.0 2.0 0.00 0.00 0.00 75 1011.7
20260505225022 53 15 0.0 1.0 0.00 0.00 0.00 75 1011.5
20260505224520 53 2 0.0 2.0 0.00 0.00 0.00 76 1011.6
20260505224017 53 18 2.0 2.0 0.00 0.00 0.00 75 1011.4
20260505223514 53 116 1.0 2.0 0.00 0.00 0.00 75 1011.6
20260505223010 53 351 4.0 8.0 0.00 0.00 0.00 75 1011.7
20260505222507 53 93 2.0 2.0 0.00 0.00 0.00 76 1011.3
20260505222002 53 5 0.0 2.0 0.00 0.00 0.00 76 1010.9
20260505221500 53 39 1.0 2.0 0.00 0.00 0.00 76 1011.1
20260505220957 53 184 1.0 2.0 0.00 0.00 0.00 75 1011.0
20260505220454 53 321 2.0 3.0 0.00 0.00 0.00 75 1011.2
20260505215951 54 16 0.0 3.0 0.00 0.00 0.00 75 1011.1
20260505215449 54 115 1.0 2.0 0.00 0.00 0.00 75 1011.0
20260505214947 54 16 1.0 1.0 0.00 0.00 0.00 74 1010.5
20260505214445 54 45 1.0 3.0 0.00 0.00 0.00 74 1010.4
20260505213942 54 347 0.0 2.0 0.00 0.00 0.00 75 1010.3
20260505213439 54 20 1.0 4.0 0.00 0.00 0.00 75 1010.5
20260505212935 55 17 1.0 3.0 0.00 0.00 0.00 74 1010.6
20260505212432 55 12 0.0 3.0 0.00 0.00 0.00 74 1010.8
20260505211928 55 318 1.0 3.0 0.00 0.00 0.00 74 1010.9
20260505211426 54 22 1.0 3.0 0.00 0.00 0.00 74 1010.1
20260505210922 55 346 2.0 3.0 0.00 0.00 0.00 73 1010.4
20260505210420 54 275 1.0 3.0 0.00 0.00 0.00 75 1010.0
20260505205916 54 280 2.0 3.0 0.00 0.00 0.00 75 1010.1
20260505205415 54 15 0.0 3.0 0.00 0.00 0.00 75 1010.5
20260505204911 54 10 0.0 2.0 0.00 0.00 0.00 75 1011.0
20260505204409 55 21 0.0 2.0 0.00 0.00 0.00 75 1011.4
20260505203906 55 45 1.0 2.0 0.00 0.00 0.00 76 1010.9
20260505203403 55 347 0.0 4.0 0.00 0.00 0.00 75 1010.4
20260505202859 55 28 1.0 2.0 0.00 0.00 0.00 75 1010.5
20260505202355 55 282 2.0 2.0 0.00 0.00 0.00 75 1010.2
20260505201852 55 38 1.0 2.0 0.00 0.00 0.00 75 1010.1
20260505201349 55 24 1.0 3.0 0.00 0.00 0.00 76 1009.9
20260505200847 55 28 2.0 6.0 0.00 0.00 0.00 76 1010.1
20260505200344 55 342 1.0 2.0 0.00 0.00 0.00 76 1010.2
20260505195840 55 24 0.0 2.0 0.00 0.00 0.00 77 1010.1
20260505195337 55 60 2.0 3.0 0.00 0.00 0.00 78 1010.1
20260505194834 55 11 2.0 3.0 0.00 0.00 0.00 78 1010.3
20260505194331 55 304 1.0 2.0 0.00 0.00 0.00 79 1010.0
20260505193826 55 287 0.0 4.0 0.00 0.00 0.00 79 1010.1
20260505193324 55 244 1.0 3.0 0.00 0.00 0.00 79 1009.9
20260505192822 55 236 2.0 3.0 0.00 0.00 0.00 80 1010.3
20260505192320 55 20 3.0 4.0 0.00 0.00 0.00 79 1009.9
20260505191817 55 336 2.0 3.0 0.00 0.00 0.00 80 1009.7
20260505191316 55 348 1.0 2.0 0.00 0.00 0.00 80 1010.0
20260505190812 55 21 1.0 2.0 0.00 0.00 0.00 81 1010.1
20260505190307 55 92 1.0 2.0 0.00 0.00 0.00 81 1010.1
20260505185803 55 0 1.0 4.0 0.00 0.00 0.00 81 1009.7
20260505185300 55 221 1.0 2.0 0.00 0.00 0.00 82 1009.9
20260505184756 55 99 1.0 3.0 0.00 0.00 0.00 81 1009.6
20260505184253 56 358 1.0 3.0 0.00 0.00 0.00 81 1009.9
20260505183750 56 323 0.0 3.0 0.00 0.00 0.00 81 1009.4
20260505183248 56 23 2.0 3.0 0.00 0.00 0.00 80 1009.9
20260505182744 56 79 0.0 1.0 0.00 0.00 0.00 80 1009.7
20260505182241 56 335 1.0 2.0 0.00 0.00 0.00 80 1009.5
20260505181737 57 313 1.0 3.0 0.00 0.00 0.00 79 1009.4
20260505181235 57 246 2.0 3.0 0.00 0.00 0.00 79 1009.3
20260505180731 57 29 0.0 2.0 0.00 0.00 0.00 80 1009.3
20260505180228 57 327 1.0 2.0 0.00 0.00 0.00 79 1009.3
20260505175724 58 290 1.0 2.0 0.00 0.00 0.00 79 1009.0
20260505175221 57 20 0.0 2.0 0.00 0.00 0.00 80 1008.6
20260505174717 57 344 0.0 2.0 0.00 0.00 0.00 80 1008.7
20260505174214 57 42 1.0 2.0 0.00 0.00 0.00 80 1008.8
20260505173710 57 236 1.0 3.0 0.00 0.00 0.00 81 1008.6
20260505173207 57 294 2.0 3.0 0.00 0.00 0.00 81 1008.9
20260505172704 57 352 1.0 2.0 0.00 0.00 0.00 81 1008.5
20260505172201 57 274 2.0 2.0 0.00 0.00 0.00 81 1008.7
20260505171701 57 32 2.0 4.0 0.00 0.00 0.00 82 1008.3
20260505171158 57 337 2.0 3.0 0.00 0.00 0.00 82 1008.3
20260505170655 57 26 0.0 3.0 0.00 0.00 0.00 83 1008.2
20260505170152 57 318 2.0 3.0 0.00 0.00 0.00 82 1008.3
20260505165652 57 60 1.0 6.0 0.00 0.00 0.00 83 1008.2
20260505165148 57 336 0.0 9.0 0.00 0.00 0.00 83 1008.0
20260505164644 57 11 1.0 3.0 0.00 0.00 0.00 83 1007.9
20260505164142 57 20 2.0 2.0 0.00 0.00 0.00 83 1007.7
20260505163640 57 14 1.0 3.0 0.00 0.00 0.00 84 1007.7
20260505163137 57 232 1.0 3.0 0.00 0.00 0.00 84 1007.4
20260505162634 57 8 2.0 6.0 0.00 0.00 0.00 84 1007.4
20260505162132 57 5 0.0 2.0 0.00 0.00 0.00 84 1007.1
20260505161629 58 18 2.0 3.0 0.00 0.00 0.00 84 1007.0
20260505161126 58 28 1.0 7.0 0.00 0.00 0.00 84 1006.6
20260505160624 58 358 2.0 3.0 0.00 0.00 0.00 84 1006.3
20260505160121 59 0 1.0 2.0 0.00 0.00 0.00 84 1006.3
20260505153101 61 353 2.0 3.0 0.00 0.00 0.00 85 1005.8
20260505152557 61 254 1.0 2.0 0.00 0.00 0.00 85 1005.7
20260505152053 62 14 2.0 3.0 0.00 0.00 0.00 85 1005.5
20260505151548 62 343 2.0 2.0 0.00 0.00 0.00 84 1005.1
20260505151046 63 2 2.0 7.0 0.00 0.00 0.00 84 1005.0
20260505150542 64 10 1.0 3.0 0.00 0.00 0.00 83 1004.8
20260505140508 69 41 0.0 1.0 0.00 0.00 0.00 86 1003.3
20260505124921 68 63 1.0 2.0 0.00 0.00 0.00 86 1003.1
20260505124418 68 353 0.0 0.0 0.00 0.00 0.00 85 1003.1
20260505123914 68 30 1.0 1.0 0.00 0.00 0.00 85 1002.8
20260505123411 68 52 0.0 1.0 0.00 0.00 0.00 85 1003.0
20260505122906 68 57 0.0 1.0 0.00 0.00 0.00 85 1002.9
20260505122404 68 30 0.0 0.0 0.00 0.00 0.00 85 1002.9
20260505121900 68 30 0.0 0.0 0.00 0.00 0.00 85 1002.7
20260505121358 68 30 0.0 0.0 0.00 0.00 0.00 85 1002.6
20260505120853 68 30 0.0 0.0 0.00 0.00 0.00 84 1002.6
20260505120350 68 30 0.0 0.0 0.00 0.00 0.00 83 1002.3
20260505115848 68 30 0.0 0.0 0.00 0.00 0.00 83 1002.5
20260505115346 68 30 0.0 0.0 0.00 0.00 0.00 82 1002.6
20260505114844 69 30 0.0 0.0 0.00 0.00 0.00 82 1002.2
20260505114340 69 30 0.0 0.0 0.00 0.00 0.00 81 1002.1
20260505113836 69 30 0.0 0.0 0.00 0.00 0.00 81 1002.1
20260505113333 70 30 0.0 0.0 0.00 0.00 0.00 80 1001.8
20260505112829 70 30 0.0 0.0 0.00 0.00 0.00 79 1001.8
20260505112326 70 30 0.0 0.0 0.00 0.00 0.00 78 1001.5
20260505111822 70 30 0.0 1.0 0.00 0.00 0.00 78 1001.3
20260505111317 70 249 0.0 1.0 0.00 0.00 0.00 78 1001.1
20260505110814 71 68 0.0 0.0 0.00 0.00 0.00 77 1001.3
20260505110311 71 254 1.0 3.0 0.00 0.00 0.00 76 1001.3
20260505101746 72 102 2.0 7.0 0.00 0.00 0.00 75 1000.2
20260505101241 72 179 2.0 6.0 0.00 0.00 0.00 75 1000.0
20260505100738 72 272 2.0 3.0 0.00 0.00 0.00 75 1000.1
20260505100234 72 243 2.0 4.0 0.00 0.00 0.00 75 1000.1
20260505095730 72 53 2.0 8.0 0.00 0.00 0.00 75 999.9
20260505095228 72 22 1.0 6.0 0.00 0.00 0.00 75 999.9
20260505094723 73 27 2.0 4.0 0.00 0.00 0.00 75 1000.2
20260505094220 73 122 3.0 9.0 0.00 0.00 0.00 75 1000.0
20260505093716 73 254 3.0 7.0 0.00 0.00 0.00 75 1000.2
20260505093214 73 207 2.0 7.0 0.00 0.00 0.00 75 999.9
20260505092710 72 155 2.0 9.0 0.00 0.00 0.00 75 999.9
20260505092210 73 227 1.0 9.0 0.00 0.00 0.00 75 1000.0
20260505091706 73 213 4.0 8.0 0.00 0.00 0.00 75 1000.0
20260505091204 73 144 2.0 4.0 0.00 0.00 0.00 75 1000.1
20260505090701 73 263 2.0 9.0 0.00 0.00 0.00 75 1000.1
20260505090159 73 252 3.0 6.0 0.00 0.00 0.00 75 1000.2
20260505085657 73 174 2.0 4.0 0.00 0.00 0.00 75 1000.1
20260505085155 73 200 1.0 10.0 0.00 0.00 0.00 75 1000.3
20260505084652 73 288 3.0 6.0 0.00 0.00 0.00 75 1000.4
20260505084151 73 138 3.0 8.0 0.00 0.00 0.00 75 1000.4
20260505083647 73 299 1.0 4.0 0.00 0.00 0.00 75 1000.6
20260505083144 73 299 3.0 7.0 0.00 0.00 0.00 75 1000.6
20260505082640 73 312 2.0 7.0 0.00 0.00 0.00 75 1000.6
20260505082137 73 327 2.0 6.0 0.00 0.00 0.00 75 1000.7
20260505081633 73 233 4.0 10.0 0.00 0.00 0.00 75 1000.8
20260505081131 73 275 2.0 8.0 0.00 0.00 0.00 75 1000.7
20260505080627 73 71 2.0 7.0 0.00 0.00 0.00 75 1000.8
20260505080123 73 259 3.0 7.0 0.00 0.00 0.00 75 1000.8
20260505075620 73 241 2.0 6.0 0.00 0.00 0.00 75 1000.7
20260505075116 73 265 4.0 10.0 0.00 0.00 0.00 75 1001.0
20260505074613 73 257 4.0 7.0 0.00 0.00 0.00 75 1001.0
20260505074110 73 146 1.0 4.0 0.00 0.00 0.00 75 1000.9
20260505073608 73 266 4.0 7.0 0.00 0.00 0.00 75 1001.1
20260505073106 73 245 4.0 7.0 0.00 0.00 0.00 75 1001.0
20260505072601 73 338 4.0 13.0 0.00 0.00 0.00 74 1001.2
20260505072058 73 247 1.0 9.0 0.00 0.00 0.00 74 1001.1
20260505071559 73 170 7.0 10.0 0.00 0.00 0.00 74 1001.4
20260505071057 73 180 0.0 7.0 0.00 0.00 0.00 75 1001.4
20260505070554 73 171 3.0 7.0 0.00 0.00 0.00 74 1001.4
20260505070050 73 259 2.0 11.0 0.00 0.00 0.00 74 1001.6
20260505065546 73 334 5.0 9.0 0.00 0.00 0.00 74 1001.5
20260505065043 73 183 2.0 8.0 0.00 0.00 0.00 74 1001.6
20260505064539 73 135 2.0 7.0 0.00 0.00 0.00 74 1001.6
20260505064038 73 112 3.0 8.0 0.00 0.00 0.00 74 1001.8
20260505063535 73 102 2.0 8.0 0.00 0.00 0.00 74 1001.8
20260505063031 73 317 2.0 10.0 0.00 0.00 0.00 74 1001.8
20260505062528 73 124 1.0 4.0 0.00 0.00 0.00 74 1001.8
20260505062025 73 108 4.0 6.0 0.00 0.00 0.00 74 1001.9
20260505061522 73 7 4.0 6.0 0.00 0.00 0.00 74 1001.8
20260505061020 73 288 4.0 8.0 0.00 0.00 0.00 74 1001.7
20260505060517 73 134 5.0 9.0 0.00 0.00 0.00 73 1001.9
20260505060014 73 217 4.0 4.0 0.00 0.00 0.00 74 1002.0
20260505055509 73 168 6.0 8.0 0.00 0.00 0.00 73 1002.3
20260505055006 73 305 4.0 9.0 0.00 0.00 0.00 73 1002.3
20260505054504 73 249 1.0 6.0 0.00 0.00 0.00 73 1002.2
20260505054001 73 236 2.0 6.0 0.00 0.00 0.00 73 1002.4
20260505053458 73 148 4.0 8.0 0.00 0.00 0.00 73 1002.3
20260505052955 74 274 1.0 4.0 0.00 0.00 0.00 73 1002.3
20260505052452 74 222 2.0 8.0 0.00 0.00 0.00 72 1002.3
20260505051949 74 237 3.0 8.0 0.00 0.00 0.00 72 1002.2